Date String (YYYY-MM-DD hh:mm:ss) UTC,Instrument flags,absolute air pressure of the measurement (hPa),sample flow rate (lpm),inlet stack bypass flow (lpm),air temperature of the measurement (°C),ambient temperature measured by the external sensor (°C),aerosol sample conditioner tube jacket temperature (°C),OPC LED temperature (°C),internal box temperature (°C),relative humidity of the measurement (%),span deviation,mass concentration of particles derived from Lorenz-Mie calculation of OPC scattering (μg/m³),mass concentration of particles derived from Lorenz-Mie calculation of OPC scattering (μg/m³),mass concentration of particles derived from Lorenz-Mie calculation of OPC scattering (μg/m³)
DateTimeUTC,F1_M11,P_M11,Q1_M11,Q2_M11,T1_M11,T2_M11,T3_M11,T4_M11,T5_M11,U1_M11,ZSPAN_M11,X0_M11,X2_M11,X1_M11
2024-02-05 05:00:00,SystemResetWarning,0831.5,5.01,000.00,019.1,018.4,000.0,027.5,020.7,17.7,0000.0,0003.80,0003.06,0002.88
2024-02-05 05:01:00,SystemResetWarning,0831.4,5.00,000.00,019.1,018.4,000.0,027.5,020.7,17.7,0000.0,0003.85,0003.09,0002.89
2024-02-05 05:02:00,SystemResetWarning,0831.4,5.00,000.00,019.1,018.3,000.0,027.5,020.7,17.7,0000.0,0004.04,0003.11,0002.91
2024-02-05 05:03:00,SystemResetWarning,0831.4,5.00,000.00,019.0,018.3,000.0,027.5,020.7,17.7,0000.0,0004.05,0003.11,0002.89
2024-02-05 05:04:00,SystemResetWarning,0831.5,4.99,000.00,019.0,018.3,000.0,027.5,020.7,17.7,0000.0,0004.07,0003.12,0002.89
2024-02-05 05:05:00,SystemResetWarning,0831.4,4.99,000.00,019.0,018.3,000.0,027.5,020.6,17.6,0000.0,0004.07,0003.11,0002.90
2024-02-05 05:06:00,SystemResetWarning,0831.4,5.00,000.00,019.0,018.3,000.0,027.4,020.6,17.6,0000.0,0004.00,0003.09,0002.88
2024-02-05 05:07:00,SystemResetWarning,0831.4,5.01,000.00,019.0,018.3,000.0,027.4,020.6,17.6,0000.0,0004.10,0003.11,0002.87
2024-02-05 05:08:00,SystemResetWarning,0831.4,5.01,000.00,019.0,018.3,000.0,027.4,020.6,17.6,0000.0,0004.02,0003.12,0002.88
2024-02-05 05:09:00,SystemResetWarning,0831.4,5.01,000.00,018.9,018.2,000.0,027.4,020.6,17.6,0000.0,0004.03,0003.11,0002.87
2024-02-05 05:10:00,SystemResetWarning,0831.4,4.99,000.00,018.9,018.2,000.0,027.4,020.6,17.6,0000.0,0004.06,0003.11,0002.87
2024-02-05 05:11:00,SystemResetWarning,0831.4,5.00,000.00,018.9,018.2,000.0,027.4,020.5,17.5,0000.0,0004.10,0003.11,0002.86
2024-02-05 05:12:00,SystemResetWarning,0831.3,5.00,000.00,018.9,018.2,000.0,027.3,020.5,17.5,0000.0,0004.02,0003.08,0002.83
2024-02-05 05:13:00,SystemResetWarning,0831.3,5.00,000.00,018.9,018.2,000.0,027.3,020.5,17.5,0000.0,0003.81,0003.03,0002.80
2024-02-05 05:14:00,SystemResetWarning,0831.3,5.00,000.00,018.9,018.2,000.0,027.3,020.5,17.5,0000.0,0003.74,0002.99,0002.79
2024-02-05 05:15:00,SystemResetWarning,0831.3,4.99,000.00,018.9,018.2,000.0,027.3,020.5,17.4,0000.0,0003.73,0002.99,0002.79
2024-02-05 05:16:00,SystemResetWarning,0831.3,5.00,000.00,018.9,018.1,000.0,027.3,020.5,17.4,0000.0,0003.73,0002.99,0002.79
2024-02-05 05:17:00,SystemResetWarning,0831.3,5.00,000.00,018.8,018.1,000.0,027.3,020.5,17.4,0000.0,0003.72,0002.98,0002.78
2024-02-05 05:18:00,SystemResetWarning,0831.3,5.00,000.00,018.8,018.1,000.0,027.3,020.5,17.4,0000.0,0003.47,0002.91,0002.75
2024-02-05 05:19:00,SystemResetWarning,0831.3,5.00,000.00,018.8,018.1,000.0,027.2,020.4,17.4,0000.0,0003.54,0002.92,0002.74
2024-02-05 05:20:00,SystemResetWarning,0831.3,5.01,000.00,018.8,018.1,000.0,027.2,020.4,17.4,0000.0,0003.54,0002.91,0002.74
2024-02-05 05:21:00,SystemResetWarning,0831.3,5.00,000.00,018.8,018.1,000.0,027.2,020.4,17.4,0000.0,0003.57,0002.90,0002.72
2024-02-05 05:22:00,SystemResetWarning,0831.3,5.01,000.00,018.8,018.1,000.0,027.2,020.4,17.4,0000.0,0003.53,0002.88,0002.72
2024-02-05 05:23:00,SystemResetWarning,0831.3,4.99,000.00,018.8,018.1,000.0,027.2,020.4,17.4,0000.0,0003.71,0002.92,0002.72
2024-02-05 05:24:00,SystemResetWarning,0831.3,5.00,000.00,018.7,018.1,000.0,027.2,020.4,17.4,0000.0,0003.79,0002.93,0002.72
2024-02-05 05:25:00,SystemResetWarning,0831.3,5.00,000.00,018.7,018.1,000.0,027.2,020.4,17.4,0000.0,0003.81,0002.94,0002.72
2024-02-05 05:26:00,SystemResetWarning,0831.3,5.00,000.00,018.7,018.0,000.0,027.2,020.3,17.4,0000.0,0003.80,0002.95,0002.73
2024-02-05 05:27:00,SystemResetWarning,0831.3,5.01,000.00,018.7,018.0,000.0,027.1,020.3,17.4,0000.0,0003.90,0002.98,0002.72
2024-02-05 05:28:00,SystemResetWarning,0831.2,5.00,000.00,018.7,018.0,000.0,027.1,020.3,17.4,0000.0,0004.04,0003.03,0002.73
2024-02-05 05:29:00,SystemResetWarning,0831.2,5.01,000.00,018.7,018.0,000.0,027.1,020.3,17.4,0000.0,0004.12,0003.07,0002.75
2024-02-05 05:30:00,SystemResetWarning,0831.3,5.00,000.00,018.7,018.0,000.0,027.1,020.3,17.3,0000.0,0004.02,0003.05,0002.76
2024-02-05 05:31:00,SystemResetWarning,0831.2,5.00,000.00,018.7,018.0,000.0,027.1,020.3,17.3,0000.0,0004.02,0003.07,0002.76
2024-02-05 05:32:00,SystemResetWarning,0831.2,5.00,000.00,018.6,018.0,000.0,027.1,020.3,17.3,0000.0,0003.92,0003.05,0002.76
2024-02-05 05:33:00,SystemResetWarning,0831.2,5.00,000.00,018.6,018.0,000.0,027.1,020.3,17.3,0000.0,0003.87,0003.05,0002.77
2024-02-05 05:34:00,SystemResetWarning,0831.2,4.99,000.00,018.6,017.9,000.0,027.1,020.3,17.3,0000.0,0003.72,0003.03,0002.78
2024-02-05 05:35:00,SystemResetWarning,0831.3,5.00,000.00,018.6,017.9,000.0,027.1,020.2,17.4,0000.0,0003.66,0003.03,0002.79
2024-02-05 05:36:00,SystemResetWarning,0831.2,4.99,000.00,018.6,017.9,000.0,027.0,020.2,17.4,0000.0,0003.72,0003.05,0002.80
2024-02-05 05:37:00,SystemResetWarning,0831.2,5.00,000.00,018.6,017.9,000.0,027.0,020.2,17.4,0000.0,0003.77,0003.03,0002.79
2024-02-05 05:38:00,SystemResetWarning,0831.3,5.00,000.00,018.6,017.9,000.0,027.0,020.2,17.4,0000.0,0003.64,0002.99,0002.77
2024-02-05 05:39:00,SystemResetWarning,0831.3,4.99,000.00,018.5,017.9,000.0,027.0,020.2,17.4,0000.0,0003.49,0002.92,0002.76
2024-02-05 05:40:00,SystemResetWarning,0831.2,5.00,000.00,018.5,017.9,000.0,027.0,020.2,17.4,0000.0,0003.38,0002.87,0002.74
2024-02-05 05:41:00,SystemResetWarning,0831.2,5.02,000.00,018.5,017.9,000.0,027.0,020.2,17.4,0000.0,0003.30,0002.83,0002.71
2024-02-05 05:42:00,SystemResetWarning,0831.3,5.00,000.00,018.5,017.9,000.0,027.0,020.1,17.4,0000.0,0003.18,0002.77,0002.67
2024-02-05 05:43:00,SystemResetWarning,0831.2,5.00,000.00,018.5,017.8,000.0,026.9,020.1,17.4,0000.0,0003.14,0002.75,0002.66
2024-02-05 05:44:00,SystemResetWarning,0831.2,5.00,000.00,018.5,017.8,000.0,026.9,020.1,17.4,0000.0,0003.16,0002.75,0002.65
2024-02-05 05:45:00,SystemResetWarning,0831.2,4.99,000.00,018.5,017.8,000.0,026.9,020.1,17.4,0000.0,0003.19,0002.75,0002.62
2024-02-05 05:46:00,SystemResetWarning,0831.2,5.01,000.00,018.4,017.8,000.0,026.9,020.1,17.4,0000.0,0003.17,0002.73,0002.59
2024-02-05 05:47:00,SystemResetWarning,0831.2,5.01,000.00,018.4,017.8,000.0,026.9,020.0,17.4,0000.0,0003.10,0002.69,0002.57
2024-02-05 05:48:00,SystemResetWarning,0831.2,5.00,000.00,018.4,017.8,000.0,026.9,020.1,17.4,0000.0,0003.02,0002.66,0002.55
2024-02-05 05:49:00,SystemResetWarning,0831.2,5.00,000.00,018.4,017.8,000.0,026.9,020.0,17.4,0000.0,0003.22,0002.65,0002.54
2024-02-05 05:50:00,SystemResetWarning,0831.2,4.99,000.00,018.4,017.8,000.0,026.8,020.0,17.4,0000.0,0004.78,0002.62,0002.51
2024-02-05 05:51:00,SystemResetWarning,0831.2,5.00,000.00,018.4,017.7,000.0,026.8,020.0,17.4,0000.0,0004.81,0002.62,0002.51
2024-02-05 05:52:00,SystemResetWarning,0831.2,5.00,000.00,018.4,017.7,000.0,026.8,020.0,17.4,0000.0,0004.86,0002.64,0002.51
2024-02-05 05:53:00,SystemResetWarning,0831.2,5.00,000.00,018.4,017.7,000.0,026.8,020.0,17.4,0000.0,0004.86,0002.64,0002.50
2024-02-05 05:54:00,SystemResetWarning,0831.1,5.01,000.00,018.4,017.7,000.0,026.8,020.0,17.4,0000.0,0004.87,0002.63,0002.49
2024-02-05 05:55:00,SystemResetWarning,0831.1,5.01,000.00,018.4,017.7,000.0,026.8,020.0,17.4,0000.0,0004.91,0002.60,0002.47
2024-02-05 05:56:00,SystemResetWarning,0831.1,5.00,000.00,018.3,017.7,000.0,026.8,020.0,17.4,0000.0,0004.90,0002.58,0002.47
2024-02-05 05:57:00,SystemResetWarning,0831.1,5.00,000.00,018.3,017.7,000.0,026.8,020.0,17.4,0000.0,0004.93,0002.59,0002.47
2024-02-05 05:58:00,SystemResetWarning,0831.1,5.00,000.00,018.3,017.7,000.0,026.8,020.0,17.3,0000.0,0004.95,0002.58,0002.45
2024-02-05 05:59:00,SystemResetWarning,0831.2,5.00,000.00,018.3,017.7,000.0,026.9,020.0,17.4,0000.0,0005.00,0002.60,0002.45
